Погода Торгай

Погода Торгай : погода сейчас, прогноз погоды и архив. Всё, что Вы хотите узнать о погоде Торгай!

Хотите узнать прогноз погоды Торгай? Тогда Вам сюда: Погода Торгай

Поиск расширенной информации на нашем сайте:

Другие новости

Новости СМИ2

Главная страница сайта

Новости сайта

03.07.2017

Напоминаем, что на нашем специализированном сайте Метеоцентр.Азия вы можете получить высокодетализированные автоматические прогнозы погоды по пунктам России, СНГ и мира в авиационном формате (включающие направление и скорость ветра, видимость, явления погоды, количество и форму облачности, нижнюю и верхнюю границу облачности).


Погода Торгай - сегодня

Время (UTC), дата Ветер
(°,м/с) 
Видим.   Явления Облачность Т
(°С)
Тd
(°С)
f(%) Тe
(°С)
Pmin
(гПа)
dP
(гПа)
Po
(мм)
O2
(г/м3)
Тmin Tmax R s Состояние
почвы
15 22.09.18 290 (З) н/о    6/0 средняя 
[Ac lent]
+16.8 +7.1 53 +18  1016.8  0.4  751  284    +19.8       
18 22.09.18 290 (З) н/о    8/0 средняя 
[Ac trans]
+13.4 +6.1 61 +14  1017.7  0.6  751  287    +19.8       
21 22.09.18 290 (З) н/о    4/0 средняя 
[Ac lent]
+12.2 +6.2 67 +13  1017.3  -0.4  751  289           
00 23.09.18 270 (З) н/о    3/0 средняя 
[Ac lent]
+9.4 +3.4 66 +9  1017.3  -0.2  751  292           
03 23.09.18 290 (З) 10 км    6/0 средняя 
[Ac lent]
+12.6 +6.1 65 +13  1018.1  751  288           
06 23.09.18 290 (З) 10 км    4/0 средняя 
[Ac trans]
+16.4 +7.4 55 +17  1018.6  0.6  752  285  +9.4         
09 23.09.18 290 (З) 10 км    4/4 1000 м 
[Cu med, cong]
+20.3 +8 45 +20  1018.8  0.5  752  281           
12 23.09.18 340 (С) 10 км    3/3 1000 м 
[Cu hum]
+19.7 +7.8 46 +21  1017.9  -0.8  752  281           
15 23.09.18 340 (С) н/о    3/0 средняя 
[Ac lent]
+17.1 +6.5 50 +19  1018.6  0.5  752  284    +20.6       
18 23.09.18 340 (С) н/о    ясно 
+13 +4 54 +14  1019  752  289    +20.6       
21 23.09.18 360 (С) н/о    ясно 
+10.6 +2.7 58 +12  1019.8  0.7  752  291           
00 24.09.18 360 (С) н/о    ясно 
+7.1 +1.5 68 +8  1020.7  0.7  753  295           
03 24.09.18 360 (С) 10 км    ясно 
+8 +2.5 68 +9  1022.5  1.9  754  295           
06 24.09.18 070 (В) 10 км    ясно 
+16.5 +3.6 42 +18  1023.8  1.7  756  287  +7.1         
09 24.09.18 070 (В) 10 км    ясно 
+20.4 +4 34 +20  1023.7  0.2  756  283           
12 24.09.18 110 (В) 10 км    ясно 
+19.9 +4.3 36 +21  1022.9  -0.8  755  283           
15 24.09.18 110 (В) н/о    ясно 
+16.2 +3.6 43 +18  1023.9  0.7  756  287    +21       
18 24.09.18 110 (В) н/о    ясно 
+12.4 +3.2 53 +14  1024.9  0.8  756  291    +21       
21 24.09.18 110 (В) н/о    ясно 
+9.1 +1.9 61 +10  1025.3  0.1  756  295           
00 25.09.18 110 (В) н/о    ясно 
+6.7 +1.5 69 +8  1025.4  756  297           
03 25.09.18 110 (В) 10 км    ясно 
+9.3 +3 65 +10  1025.7  0.5  757  294           
06 25.09.18 140 (ЮВ) 10 км    ясно 
+17.8 +5 43 +19  1025.7  0.5  757  286  +6.7         
09 25.09.18 140 (ЮВ) 10 км    4/0 верхняя 
[Ci fib]
+21.6 +7 39 +22  1024.8  -0.7  757  281           
12 25.09.18 140 (ЮВ) 10 км    3/0 верхняя 
[Ci fib]
+22.4 +5.5 33 +22  1023.9  -0.9  756  281           
15 25.09.18 140 (ЮВ) н/о    ясно 
+18.6 +4.6 40 +20  1024.2  0.1  756  285    +22.7       
Время (UTC), дата Ветер
(°,м/с) 
Видим.   Явления Облачность Т
(°С)
Тd
(°С)
f(%) Тe
(°С)
Pmin
(гПа)
dP
(гПа)
Po
(мм)
O2
(г/м3)
Тmin Tmax R s Состояние
почвы

Для получения пояснительной информации подведите курсор к названию столбца.

ПОГОДА Торгай - архив

Всё, что Вы хотите узнать о погоде Торгай - удобно и подробно!

Выберите нужную дату (начиная с 1 января 2015* года) и нажмите кнопку "Найти".
Будут отображены архивные сводки погоды по пункту Торгай, начиная с указанной даты.


Отображать данные в формате CSV (для использования в таблицах Excel)


Внимание! Наш архив погоды предназначен исключительно для личного некоммерческого использования в познавательных целях. Если Вам необходимы официальные справки о состоянии погоды (для производственных, юридических, коммерческих и т.п. целей), обращайтесь в органы Росгидромета.

*Примечание: данная дата относится к архиву по метеостанциям СССР (Россия, СНГ, Балтия).
Архив по метеостанциям Зарубежной Европы и Азии (кроме Китая) хранится 10 дней, по другим регионам земного шара (Китай, Африка, Америка, Австралия, Океания) - 1 день.

Торгай - район местоположения метеостанции


Название, широта, долгота, высота метеостанции:
Торгай 49.7°ш. 63.5°д. 123 м над ур. моря [Казахстан]

Дополнительная информация

В oтличие oт бoльшинства пoгoдных сайтoв мы публикуем пoдрoбную метеoинфoрмацию в детальнoм прoфессиoнальнoм фoрмате.

Характеристики температуры и влажнoсти вoздуха измеряются на высoте 2 м в тени вдали oт зданий и деревьев.
Скoрoсть ветра измеряется на высoте 10 м (на урoвне рoста челoвека скoрoсть ветра ниже в 1.5-2 раза). Если метеoстанция нахoдится в гoрoде или в лесу, тo скoрoсть ветра занижена на 2-4 м/с пo сравнению с oткрытым местoм. Скoрoсть ветра над акватoриями крупных рек и oзёр, а также на вершинах хoлмoв на 2-5 м/с выше, чем в oбычных услoвиях.
Атмoсфернoе давление в разных тoчках местнoсти мoжет значительнo oтличаться oт давления на метеoстанции, в зависимoсти oт услoвий рельефа (при пoдъёме на 10 м давление пoнижается примернo на 1 мм рт.ст.).